Location: Oulou
(10.7667°N, 12.5167°W)
Time: 03:34:49
(UTC+00:00)

Ariane Rocket - Pass Details

Date: 20 September 2019
Orbit: 761 x 769 km, 98.8° (Epoch: 21 October)

Event Time Altitude Azimuth Distance (km) Brightness Sun altitude
Exits shadow 19:57:08 - 156° (SSE) 2,594 5.5 -17.9°
Reaches altitude 10° 19:57:55 10° 154° (SSE) 2,287 5.2 -18.1°
Maximum altitude 20:02:50 56° 77° (ENE) 896 3.0 -19.3°
Drops below altitude 10° 20:07:46 10° 359° (N) 2,290 5.5 -20.5°
Sets 20:10:06 0° 355° (N) 3,216 6.4 -21.1°
